Temp
10 11 11 11 11 11 11 11 11 11 11 11 11 11 11 11 11 11 11 11 11 11 11 11 11 11 11 11 11 11 11 11 9 9 7 7 6 6 7 7 7 6 5 3 2
10 11 11 11 11 11 11 11 11 11 11 11 11 11 11 11 12 10 11 11 11 11 11 12 11 10 10 10 10 10 11 9 7 8 8 7 7 5 6 6 5 5 4 3 2
10 11 11 11 11 11 10 10 10 10 11 11 11 10 10 10 11 11 11 11 11 11 11 11 11 10 9 10 11 10 9 9 8 7 8 9 7 6 6 5 4 4 3 2 2
10 11 11 11 11 10 10 10 10 10 10 10 10 10 10 11 10 11 11 11 11 11 11 11 10 9 10 9 10 10 10 10 9 8 7 7 7 6 6 4 3 2 1 0 -1
10 11 11 11 11 10 10 10 10 10 10 10 10 10 11 10 11 11 11 11 11 11 11 11 10 9 10 9 10 10 9 9 8 8 7 7 6 5 4 2 1 -0 -1 -1 -3
11 11 11 11 10 10 10 10 10 10 10 10 10 10 11 10 11 11 11 11 11 11 11 11 11 11 10 10 9 9 9 8 8 7 6 5 4 2 1 0 -0 -1 -3 -5 -6
11 11 11 10 10 10 10 10 10 10 10 10 10 10 10 11 11 11 11 12 11 11 11 11 11 11 11 10 10 9 9 7 6 5 5 4 2 0 -0 -1 -3 -5 -5 -4 -5
10 11 11 10 10 10 10 10 10 10 10 10 10 10 10 10 11 11 11 11 11 11 11 11 10 10 10 9 9 8 8 7 7 5 3 2 -0 1 0 -2 -4 -4 -4 -5 -5
10 11 11 10 10 10 10 10 10 10 10 10 10 11 11 11 11 11 11 11 11 11 11 10 10 10 10 9 9 8 8 7 7 5 3 3 1 1 0 -2 -3 -5 -5 -5 -4
10 11 10 10 10 10 10 10 10 10 10 10 11 11 11 11 11 11 11 11 11 10 10 9 9 10 10 10 8 8 8 7 6 5 4 2 1 -1 -2 -5 -5 -5 -6 -5 -5
10 10 10 10 10 10 10 10 10 10 10 11 11 11 10 10 11 11 10 11 10 9 9 10 9 9 8 7 7 6 6 6 6 4 2 0 -1 -2 -4 -5 -5 -5 -5 -5 -6
10 10 10 10 10 10 10 10 10 10 10 10 10 10 10 11 11 10 10 11 10 10 10 9 9 7 7 7 7 6 5 5 4 2 2 1 -2 -3 -4 -5 -5 -6 -5 -5 -5
10 10 10 10 10 10 10 10 10 10 10 10 10 10 10 10 10 10 10 10 10 10 10 9 7 7 7 7 7 5 5 4 2 2 2 0 -2 -4 -5 -5 -5 -5 -4 -5 -5
10 10 11 10 10 10 10 10 10 10 10 10 10 10 10 10 10 10 10 10 10 9 9 9 7 7 7 6 6 5 6 4 3 2 2 2 0 -3 -5 -5 -4 -4 -4 -5 -6
10 10 10 10 11 11 10 10 10 10 11 10 10 9 10 10 9 9 9 9 9 9 8 7 7 7 6 6 5 4 6 5 5 3 3 1 1 -3 -5 -4 -3 -5 -5 -6 -6
11 11 11 11 11 10 10 10 10 10 9 10 9 9 9 9 9 9 8 9 9 9 8 7 6 5 4 5 3 4 6 5 5 4 3 1 1 -5 -5 -6 -4 -5 -5 -6 -6
10 11 11 11 11 10 10 10 11 10 9 9 9 9 9 9 9 9 9 9 8 8 6 5 6 5 5 5 2 3 4 3 3 2 2 2 -0 -5 -6 -6 -5 -6 -6 -6 -7
10 11 11 11 11 10 10 11 11 9 10 9 9 9 8 8 8 8 8 8 7 6 5 5 5 4 3 2 1 -1 0 0 -2 -1 -1 1 -2 -4 -6 -5 -5 -5 -6 -6 -7
10 11 11 11 10 10 10 10 10 10 10 9 9 8 8 8 8 7 8 6 6 6 5 4 3 3 2 2 2 0 -1 -2 -3 -1 -1 2 -4 -6 -5 -4 -5 -6 -6 -6 -7
10 11 11 10 10 10 10 10 10 10 10 9 8 8 8 8 7 7 6 6 5 5 4 3 2 2 2 1 0 -0 -1 -2 -2 -6 -5 -0 -4 -6 -6 -6 -6 -6 -6 -7 -8
10 10 10 10 10 10 9 10 10 10 9 9 9 9 8 8 8 7 6 5 5 5 4 3 2 2 1 0 -1 -1 -2 -2 -3 -3 -5 -6 -4 -6 -6 -6 -7 -6 -7 -8 -9
9 10 10 10 10 10 11 11 10 10 9 9 9 8 8 8 8 7 6 6 5 4 4 3 2 1 1 -0 -1 -1 -2 -3 -5 -5 -6 -6 -6 -5 -5 -7 -7 -7 -8 -9 -8
9 10 10 10 10 10 10 10 10 10 10 9 9 8 8 8 8 7 6 5 5 4 4 3 1 1 0 -1 -2 -2 -3 -5 -6 -7 -7 -7 -5 -6 -8 -7 -7 -8 -8 -9 -7
9 9 9 9 10 10 10 10 10 10 9 9 9 8 8 8 7 7 6 6 5 4 3 2 1 0 -0 -2 -2 -3 -2 -3 -5 -7 -7 -6 -7 -8 -8 -7 -8 -8 -9 -9 -7
8 9 9 9 9 10 10 10 10 10 9 9 8 8 8 8 8 7 7 6 5 4 3 2 1 0 0 -0 -1 -2 -2 -4 -6 -7 -8 -8 -8 -8 -8 -9 -9 -8 -9 -8 -7
8 8 8 9 9 9 9 10 10 9 9 9 8 8 8 8 7 7 6 5 5 4 3 2 2 0 -1 -1 -1 -1 -2 -3 -5 -7 -7 -7 -8 -9 -7 -8 -8 -9 -9 -7 -7
8 8 8 8 9 9 9 9 9 9 9 9 8 8 8 7 7 7 7 6 5 4 3 2 1 -1 -1 -1 -2 -2 -3 -4 -4 -6 -6 -7 -9 -9 -7 -8 -9 -9 -8 -8 -7
Height
3171 3171 3172 3172 3172 3172 3173 3174 3175 3175 3176 3176 3177 3177 3177 3177 3177 3177 3177 3178 3177 3177 3176 3176 3176 3175 3175 3175 3176 3177 3179 3176 3176 3175 3175 3176 3168 3165 3165 3165 3163 3162 3159 3154 3151
3172 3172 3172 3172 3172 3172 3174 3175 3176 3177 3177 3178 3178 3179 3179 3178 3178 3179 3179 3178 3178 3178 3177 3176 3175 3176 3176 3176 3176 3176 3175 3176 3176 3174 3174 3174 3171 3165 3164 3163 3161 3158 3156 3153 3149
3173 3173 3173 3173 3173 3173 3174 3176 3177 3178 3178 3179 3180 3180 3180 3180 3180 3180 3180 3180 3179 3178 3178 3177 3177 3177 3177 3176 3176 3174 3175 3175 3175 3173 3169 3171 3170 3166 3163 3159 3158 3155 3151 3150 3148
3174 3174 3174 3174 3174 3175 3176 3177 3178 3179 3179 3180 3181 3181 3181 3181 3183 3181 3181 3181 3181 3180 3180 3178 3178 3178 3176 3176 3174 3176 3175 3176 3174 3174 3171 3168 3168 3166 3163 3159 3155 3152 3149 3146 3142
3176 3176 3176 3176 3176 3176 3178 3179 3179 3180 3180 3181 3182 3182 3182 3183 3183 3183 3183 3182 3182 3181 3181 3180 3179 3179 3177 3177 3176 3176 3175 3175 3174 3173 3170 3169 3165 3163 3158 3156 3153 3150 3146 3143 3138
3178 3178 3178 3178 3178 3179 3180 3180 3181 3181 3181 3182 3183 3183 3183 3185 3185 3184 3184 3184 3182 3181 3181 3180 3180 3179 3179 3178 3177 3175 3175 3173 3171 3169 3167 3164 3160 3159 3157 3155 3152 3149 3144 3140 3136
3179 3180 3180 3180 3180 3181 3182 3182 3183 3183 3184 3185 3185 3185 3185 3187 3186 3186 3185 3184 3183 3182 3181 3180 3180 3179 3178 3177 3177 3175 3173 3172 3170 3164 3164 3160 3155 3156 3155 3152 3149 3146 3142 3138 3134
3181 3182 3182 3182 3182 3183 3184 3185 3185 3186 3187 3187 3188 3188 3188 3188 3188 3188 3186 3185 3184 3183 3181 3181 3179 3179 3178 3177 3177 3175 3177 3173 3171 3170 3164 3161 3156 3155 3154 3151 3147 3144 3141 3136 3131
3182 3183 3184 3184 3184 3185 3186 3187 3188 3188 3189 3189 3190 3190 3190 3190 3190 3189 3188 3186 3185 3184 3182 3181 3180 3180 3179 3177 3178 3178 3177 3176 3171 3167 3164 3162 3157 3156 3154 3149 3146 3143 3139 3134 3128
3183 3184 3185 3185 3186 3187 3188 3189 3190 3191 3191 3191 3191 3193 3192 3192 3190 3189 3188 3186 3185 3184 3183 3182 3180 3180 3179 3177 3179 3177 3175 3174 3173 3168 3165 3153 3153 3154 3151 3148 3145 3142 3138 3132 3125
3184 3186 3186 3187 3188 3189 3190 3190 3193 3194 3192 3192 3193 3193 3193 3192 3191 3189 3188 3187 3186 3185 3183 3183 3183 3179 3178 3178 3178 3176 3176 3172 3170 3164 3161 3155 3152 3150 3148 3146 3144 3140 3134 3128 3122
3184 3186 3188 3188 3189 3190 3191 3192 3192 3196 3195 3194 3195 3195 3194 3193 3192 3190 3191 3190 3188 3186 3184 3183 3181 3181 3179 3178 3177 3173 3172 3168 3165 3163 3159 3154 3151 3149 3148 3147 3145 3140 3132 3125 3117
3185 3186 3188 3189 3190 3191 3192 3194 3195 3196 3196 3197 3196 3196 3195 3195 3193 3192 3192 3190 3188 3186 3185 3184 3183 3181 3179 3176 3174 3171 3169 3164 3161 3158 3157 3156 3151 3150 3148 3148 3143 3137 3131 3124 3114
3185 3187 3189 3190 3193 3192 3194 3195 3197 3197 3198 3200 3198 3198 3197 3195 3195 3193 3192 3192 3189 3188 3185 3184 3183 3181 3179 3176 3172 3171 3168 3160 3157 3158 3157 3156 3156 3152 3149 3146 3141 3134 3128 3120 3111
3185 3187 3189 3191 3193 3194 3197 3197 3198 3199 3199 3203 3200 3199 3198 3198 3198 3195 3194 3191 3190 3189 3188 3187 3183 3181 3178 3175 3171 3169 3161 3155 3154 3155 3157 3155 3154 3150 3148 3141 3138 3133 3127 3119 3110
3185 3187 3189 3191 3193 3195 3197 3198 3199 3201 3201 3202 3201 3200 3200 3199 3198 3196 3195 3194 3191 3189 3186 3185 3184 3182 3179 3175 3171 3168 3157 3154 3153 3153 3154 3155 3152 3153 3149 3144 3138 3131 3123 3116 3106
3185 3187 3189 3191 3194 3195 3197 3199 3200 3199 3204 3203 3202 3202 3201 3200 3199 3197 3196 3194 3192 3191 3189 3186 3184 3182 3180 3176 3170 3166 3158 3157 3155 3155 3155 3149 3150 3154 3151 3144 3138 3129 3121 3113 3103
3185 3187 3189 3191 3193 3195 3198 3201 3199 3201 3201 3202 3202 3203 3202 3201 3200 3199 3197 3196 3195 3193 3190 3189 3186 3184 3180 3177 3174 3172 3169 3171 3173 3164 3155 3147 3153 3154 3150 3145 3140 3132 3122 3111 3100
3185 3187 3190 3192 3194 3196 3199 3199 3199 3200 3201 3202 3203 3204 3203 3203 3202 3200 3198 3198 3196 3194 3194 3190 3187 3184 3183 3179 3178 3175 3172 3172 3168 3163 3158 3150 3151 3151 3145 3141 3135 3128 3119 3107 3097
3184 3187 3190 3192 3194 3197 3199 3198 3199 3200 3201 3202 3203 3204 3205 3204 3204 3201 3200 3200 3198 3196 3193 3192 3188 3186 3184 3180 3180 3178 3178 3174 3172 3170 3165 3153 3154 3154 3144 3138 3133 3124 3115 3105 3094
3183 3186 3189 3191 3194 3196 3197 3198 3199 3200 3201 3203 3203 3204 3205 3204 3204 3203 3203 3202 3199 3197 3194 3191 3191 3189 3184 3182 3180 3179 3176 3176 3174 3174 3173 3167 3162 3156 3149 3140 3131 3125 3117 3106 3095
3183 3186 3188 3191 3194 3194 3196 3197 3199 3200 3201 3202 3203 3204 3204 3204 3204 3204 3203 3202 3199 3196 3193 3191 3191 3189 3186 3183 3182 3180 3179 3178 3176 3176 3175 3172 3161 3154 3149 3141 3136 3125 3115 3105 3098
3181 3184 3187 3189 3191 3193 3195 3197 3199 3200 3201 3202 3203 3204 3205 3205 3205 3203 3203 3201 3199 3196 3194 3192 3191 3189 3184 3186 3182 3181 3179 3177 3176 3175 3172 3172 3158 3154 3148 3142 3134 3123 3112 3104 3096
3181 3183 3186 3188 3191 3193 3194 3197 3198 3199 3201 3202 3203 3204 3204 3204 3204 3204 3202 3201 3198 3196 3194 3192 3191 3190 3189 3185 3183 3181 3180 3179 3176 3173 3171 3165 3157 3151 3142 3136 3129 3122 3113 3105 3095
3179 3181 3183 3186 3189 3191 3193 3196 3197 3199 3200 3201 3202 3203 3204 3204 3203 3203 3201 3200 3198 3197 3195 3193 3190 3188 3185 3184 3182 3180 3179 3176 3172 3171 3168 3161 3157 3150 3143 3134 3127 3119 3111 3104 3091
3178 3181 3183 3185 3187 3190 3192 3194 3196 3198 3200 3200 3202 3202 3203 3203 3203 3202 3200 3198 3198 3197 3195 3192 3190 3187 3184 3183 3180 3178 3178 3176 3172 3170 3166 3161 3156 3150 3143 3136 3130 3120 3113 3102 3090
3175 3178 3181 3183 3185 3188 3190 3192 3195 3196 3198 3199 3200 3202 3202 3203 3202 3201 3199 3198 3197 3196 3194 3191 3189 3186 3185 3183 3179 3179 3177 3175 3172 3168 3164 3159 3155 3147 3142 3137 3127 3120 3113 3100 3092
Wind_Speed
2 2 2 2 3 4 4 4 4 4 5 5 5 6 6 4 3 5 7 7 6 5 4 3 5 7 5 6 5 6 1 4 3 5 4 4 8 17 17 16 17 15 16 18 20
4 4 3 3 3 4 4 4 4 4 4 5 6 6 5 4 3 9 7 7 6 6 6 5 7 8 5 1 4 5 6 4 4 8 12 11 11 13 20 22 24 21 19 21 25
5 5 4 4 4 4 5 5 4 4 5 5 5 5 4 6 9 7 6 6 6 7 7 8 7 8 8 2 2 6 8 8 4 3 14 13 14 18 21 25 24 24 25 26 25
6 6 6 6 7 7 6 6 5 5 5 6 6 4 2 2 5 7 7 6 6 6 5 8 10 5 1 3 5 1 3 5 5 7 11 18 18 18 23 21 22 24 25 28 29
6 6 6 7 8 8 9 8 8 7 8 9 9 9 10 10 8 7 6 6 6 6 5 4 3 2 1 6 6 7 4 8 10 11 15 18 21 20 20 20 22 25 27 29 29
6 6 7 8 9 9 10 10 10 11 12 12 12 10 10 5 6 6 5 4 6 6 5 6 6 5 5 4 3 8 12 13 15 17 21 23 22 20 21 19 21 23 24 24 26
6 6 7 9 9 10 10 11 11 12 12 11 8 5 10 6 4 4 5 6 6 6 6 6 6 5 7 6 10 11 13 15 10 20 19 23 19 19 16 19 21 20 20 29 34
6 6 7 9 9 10 11 11 10 9 9 10 9 5 7 6 5 5 6 6 6 6 6 6 5 4 6 8 10 10 6 11 15 9 12 18 13 21 23 22 19 21 27 33 40
6 7 7 9 10 10 11 11 10 9 9 9 7 5 5 6 8 7 7 7 7 7 7 6 5 5 8 5 6 2 7 13 17 18 14 21 16 18 23 17 19 25 31 37 47
7 7 7 8 8 9 9 10 10 8 6 5 4 5 5 7 7 7 8 7 7 4 6 7 6 8 9 10 4 14 18 14 11 18 22 23 18 15 15 15 21 26 34 45 41
8 7 7 7 7 7 7 12 8 5 4 8 7 6 4 7 7 9 7 6 6 9 8 9 8 14 14 14 12 12 12 14 20 18 19 12 14 17 9 14 24 32 43 40 41
9 8 7 6 6 7 9 3 8 8 9 8 7 6 7 8 9 9 9 9 9 10 7 10 14 14 14 13 17 10 7 22 11 10 17 11 11 12 11 14 24 30 42 43 46
10 8 7 7 7 8 8 11 10 7 10 9 7 6 5 7 11 10 10 10 11 12 11 2 10 13 13 18 24 3 17 30 21 16 2 5 8 7 8 11 22 38 41 43 47
10 9 8 8 8 10 12 11 7 4 5 8 9 8 8 6 11 11 13 12 12 13 12 9 14 13 16 21 26 5 27 21 16 12 3 7 3 3 4 15 29 45 44 45 48
10 9 9 8 9 12 10 7 3 2 2 7 6 7 9 10 9 15 14 14 14 14 16 12 12 13 20 26 24 26 29 14 9 10 2 3 7 2 9 27 35 45 46 47 48
11 10 10 9 10 10 11 4 3 1 3 4 5 8 10 11 13 13 16 15 15 17 20 17 17 17 22 25 20 31 26 9 7 4 3 12 6 7 17 27 40 43 45 48 49
12 10 9 9 9 9 8 3 3 4 0 3 5 6 9 11 13 14 15 17 22 12 13 15 18 22 22 24 16 32 31 7 3 4 3 20 6 3 15 25 41 44 47 48 49
13 11 10 9 9 8 6 4 2 1 1 3 5 7 10 13 12 14 13 17 22 21 8 10 9 20 26 23 21 19 21 9 4 4 12 17 5 4 15 30 44 43 45 46 50
14 12 11 10 8 8 7 1 2 1 3 5 6 8 9 13 9 14 17 17 21 23 12 12 8 17 25 18 27 14 21 14 6 9 10 3 7 1 24 38 45 45 47 48 50
14 13 11 10 9 8 4 4 2 3 4 4 4 3 2 9 7 10 15 12 19 21 17 13 6 11 19 15 20 21 18 10 8 5 6 9 7 19 34 45 44 47 49 50 53
15 13 12 11 10 9 6 1 3 5 4 3 5 4 5 8 8 10 13 11 19 20 16 15 9 11 16 13 17 20 18 14 7 2 4 4 4 21 38 39 44 45 47 52 56
14 13 12 12 12 9 6 2 3 5 4 4 4 4 6 9 7 10 13 15 19 19 15 12 8 7 13 11 13 18 13 17 6 8 5 5 9 21 39 35 40 43 47 54 55
16 13 14 14 11 8 5 4 4 5 4 4 3 4 5 7 5 9 15 15 19 16 13 11 8 6 9 6 11 14 13 17 12 10 3 6 11 36 35 39 36 42 48 54 51
16 14 14 15 13 8 7 6 5 6 5 4 3 3 3 5 8 9 15 16 16 14 13 9 7 7 4 12 13 11 11 18 18 3 16 14 30 35 38 37 40 42 48 54 47
18 14 14 14 15 12 9 5 7 6 6 5 3 1 2 4 8 12 15 15 13 13 12 12 7 13 13 8 12 13 8 16 19 16 10 28 29 30 32 36 36 42 50 50 48
18 13 13 13 12 13 11 10 6 7 6 6 4 2 1 4 7 12 15 13 12 12 12 13 11 14 8 10 18 6 8 18 19 19 20 19 25 27 25 31 34 43 49 48 50
21 19 12 15 12 15 15 12 9 8 7 7 5 3 2 4 8 12 13 11 11 12 13 13 15 12 3 15 8 4 9 15 25 24 17 23 29 29 28 31 35 41 44 49 49
Wind_Direction
33 57 94 156 179 172 165 148 124 117 110 101 94 94 89 83 78 37 28 22 23 25 32 56 63 55 64 79 94 112 84 136 42 271 233 251 269 303 308 309 308 303 277 277 286
57 65 86 135 175 179 172 153 141 135 123 111 105 102 89 54 18 29 30 37 46 55 63 72 91 62 31 116 153 120 221 167 207 255 256 264 264 271 296 304 305 304 294 289 290
65 73 89 98 114 137 147 150 147 140 129 118 109 102 93 74 61 53 59 62 71 78 83 81 79 67 23 321 229 191 226 225 222 267 292 306 305 306 311 306 306 307 309 309 309
74 78 79 89 101 111 118 122 127 130 126 119 115 102 106 60 88 67 68 66 65 69 78 96 39 39 62 78 320 250 258 325 295 287 292 305 312 308 306 308 313 315 319 321 319
86 81 80 88 95 100 105 111 113 111 119 125 119 100 113 81 88 78 69 69 55 43 39 44 96 70 312 29 337 350 340 326 325 317 314 323 316 323 320 325 327 329 328 325 323
96 89 93 95 95 99 105 108 106 105 108 120 123 109 94 99 87 72 57 41 47 46 46 37 25 3 358 337 335 348 342 338 328 331 329 329 326 331 326 330 329 328 332 339 339
105 99 101 99 98 102 107 112 109 108 113 123 128 107 86 93 69 63 54 41 49 56 51 36 27 3 356 358 1 350 2 343 343 328 332 334 321 331 332 331 335 344 341 337 347
115 109 109 105 104 107 111 111 112 107 102 104 98 95 71 59 41 44 41 40 40 41 40 26 20 24 16 353 8 16 328 311 327 340 331 339 305 316 328 332 336 336 343 352 345
127 121 118 115 115 110 110 111 109 108 104 104 94 79 59 35 30 34 33 28 19 20 19 14 356 9 1 340 276 128 336 342 328 318 323 314 289 312 317 323 338 353 354 345 338
138 132 129 123 122 121 117 112 109 107 94 96 88 91 43 37 31 26 33 27 22 14 23 40 322 356 7 22 14 326 335 345 334 307 310 308 306 316 334 350 355 0 351 340 341
144 141 138 130 127 131 132 129 112 73 48 87 83 65 34 24 19 32 34 29 31 30 301 349 349 12 19 22 5 342 325 314 318 309 344 301 299 315 358 339 359 353 340 343 340
152 147 144 134 135 133 138 120 107 104 83 68 60 52 39 29 32 33 34 14 16 13 346 328 355 10 13 0 359 341 295 326 335 304 309 285 289 325 336 357 355 339 346 342 343
158 149 143 133 131 142 135 118 110 93 75 44 36 20 15 33 38 32 21 13 10 5 9 1 352 4 357 351 0 342 336 325 323 359 247 290 266 345 350 351 334 344 343 344 344
161 153 147 146 142 142 133 122 108 62 71 20 23 21 25 26 29 30 19 15 18 15 7 3 2 352 353 357 357 43 339 333 333 327 327 342 323 192 317 329 339 341 344 347 347
165 159 149 147 149 143 140 128 73 67 201 355 23 32 35 39 25 28 22 19 19 22 11 357 4 356 359 358 359 350 351 343 335 270 276 13 310 172 337 334 340 341 347 348 348
168 166 156 152 157 160 152 96 15 20 103 28 37 34 33 29 27 20 17 15 17 9 7 8 3 5 12 1 357 353 10 18 19 21 156 358 319 38 8 345 338 343 347 348 349
169 168 159 156 161 171 174 27 32 28 112 29 38 34 31 21 23 19 19 17 30 23 356 344 342 355 355 6 9 13 23 2 348 0 306 341 11 68 2 342 342 344 346 349 351
169 168 163 155 159 162 166 97 346 64 117 111 53 48 31 22 23 24 23 28 24 22 11 3 310 351 0 15 8 19 28 55 310 328 291 329 76 90 349 334 340 344 348 351 353
170 167 164 158 156 153 141 359 206 181 137 117 71 65 4 20 24 15 17 22 15 13 19 356 324 341 359 4 19 15 19 9 284 288 291 25 50 14 315 328 341 346 349 355 354
171 168 167 167 162 162 155 193 203 153 136 130 105 78 48 20 29 14 13 6 9 8 8 358 332 334 352 11 10 28 22 8 353 356 312 340 59 352 338 342 342 348 352 355 358
170 174 174 175 176 178 186 203 176 155 142 121 109 90 51 24 24 21 14 5 1 2 1 6 13 332 349 358 11 21 25 20 314 353 318 325 52 342 342 338 343 346 353 356 354
177 176 180 183 188 203 197 211 176 166 151 126 108 80 54 27 27 17 7 4 359 2 6 12 8 315 326 346 358 6 9 11 33 326 311 289 265 326 326 339 341 349 355 356 352
186 181 183 190 206 207 216 200 187 179 164 143 117 89 53 33 21 10 3 3 2 7 8 11 8 325 316 334 350 346 359 12 348 348 319 341 277 322 336 337 348 353 358 354 350
190 187 190 197 214 213 214 210 201 192 186 168 132 95 55 29 15 5 2 4 5 8 7 7 18 1 289 295 310 329 343 354 358 324 304 313 311 338 332 341 355 354 356 351 351
198 199 196 209 210 215 213 206 214 206 198 187 176 141 37 10 1 360 360 3 9 10 6 8 359 341 330 322 328 334 346 347 343 336 302 322 323 323 336 350 355 356 355 348 359
208 202 205 208 216 215 218 218 222 219 213 207 200 183 338 355 358 354 353 360 8 8 7 2 349 344 326 330 335 332 340 348 343 325 318 327 332 337 350 359 357 358 350 352 0
209 212 211 217 215 211 216 220 222 221 219 216 213 210 268 336 347 350 353 4 6 7 6 358 352 350 311 334 339 332 347 344 339 333 344 338 338 342 357 7 7 353 352 360 360